Weather History for Hulett, WY

Change the Weather History Date:

Friday, December 6, 2013

  Actual Average (KEFC) Record (KEFC)
Temperature  
Mean Temperature -9 °F -  
Max Temperature -2 °F 36 °F 61 °F (1963)
Min Temperature -16 °F 12 °F -23 °F (1972)
Degree Days  
Heating Degree Days 74    
Moisture  
Dew Point -17 °F    
Average Humidity 77    
Maximum Humidity 84    
Minimum Humidity 66    
Precipitation  
Precipitation 0.00 in - - ()
Sea Level Pressure  
Sea Level Pressure 30.25 in    
Wind  
Wind Speed 5 mph (SW)    
Max Wind Speed 8 mph    
Max Gust Speed -    
Visibility 9 miles    
Events Snow    
Averages and records for this station are not official NWS values.
T = Trace of Precipitation, MM = Missing Value Source: NWS Daily Summary

Daily Weather History Graph

Daily Weather History Graph

Search for Another Location

Airport:

Trip Planner

Search our weather history database for the weather conditions in past years. The results will help you decide how hot, cold, wet, or windy it might be!

Date:

Astronomy

Dec. 06, 2013 Rise Set
Actual Time 7:20 AM MST 4:18 PM MST
Civil Twilight 6:47 AM MST 4:51 PM MST
Nautical Twilight 6:10 AM MST 5:27 PM MST
Astronomical Twilight 5:35 AM MST 6:03 PM MST
Moon 10:22 AM MST (12/6) 8:59 PM MST (12/6)
Length of Visible Light 10h 03m
Length of Day
8h 57m
Waxing Crescent, 20% of the Moon is Illuminated
Dec 6
Waxing Crescent
Dec 9
First Quarter
Dec 17
Full
Dec 25
Last Quarter
Jan 1
New

Hourly Weather History & Observations

Time (MST) Temp. Windchill Dew Point Humidity Pressure Visibility Wind Dir Wind Speed Gust Speed Precip Events Conditions
12:15 AM -16.6 °F -32.9 °F -22.0 °F 76% 30.17 in 10.0 mi SW 6.9 mph - N/A   Clear
12:35 AM -14.8 °F -32.2 °F -18.4 °F 84% 30.17 in 10.0 mi SSW 8.1 mph - N/A   Clear
12:55 AM -13.0 °F -30.0 °F -18.4 °F 77% 30.17 in 10.0 mi SSW 8.1 mph - N/A   Clear
1:15 AM -13.0 °F -30.0 °F -16.6 °F 84% 30.18 in 10.0 mi SSW 8.1 mph - N/A   Clear
1:35 AM -13.0 °F -27.0 °F -16.6 °F 84% 30.18 in 10.0 mi SW 5.8 mph - N/A   Clear
1:55 AM -13.0 °F -28.6 °F -18.4 °F 77% 30.18 in 10.0 mi SW 6.9 mph - N/A   Clear
2:15 AM -14.8 °F - -22.0 °F 70% 30.19 in 10.0 mi North - - N/A   Clear
2:35 AM -13.0 °F -27.0 °F -16.6 °F 84% 30.19 in 10.0 mi SSW 5.8 mph - N/A   Clear
2:55 AM -13.0 °F -30.0 °F -18.4 °F 77% 30.19 in 10.0 mi SSW 8.1 mph - N/A   Clear
3:15 AM -14.8 °F -30.8 °F -18.4 °F 84% 30.19 in 10.0 mi SSW 6.9 mph - N/A   Clear
3:35 AM -13.0 °F - -18.4 °F 77% 30.19 in 10.0 mi North - - N/A   Clear
3:55 AM -13.0 °F - -16.6 °F 84% 30.20 in 10.0 mi North - - N/A   Clear
4:15 AM -13.0 °F - -18.4 °F 77% 30.20 in 10.0 mi North - - N/A   Clear
4:35 AM -14.8 °F - -18.4 °F 84% 30.20 in 10.0 mi Calm Calm - N/A   Clear
4:55 AM -14.8 °F - -18.4 °F 84% 30.21 in 10.0 mi North - - N/A   Clear
5:15 AM -14.8 °F - -20.2 °F 77% 30.21 in 10.0 mi Calm Calm - N/A   Clear
5:35 AM -14.8 °F - -20.2 °F 77% 30.22 in 10.0 mi Calm Calm - N/A   Clear
5:55 AM -16.6 °F -31.3 °F -22.0 °F 76% 30.23 in 10.0 mi SSW 5.8 mph - N/A   Scattered Clouds
6:15 AM -14.8 °F -27.2 °F -20.2 °F 77% 30.23 in 10.0 mi South 4.6 mph - N/A   Scattered Clouds
6:35 AM -13.0 °F - -18.4 °F 77% 30.23 in 10.0 mi North - - N/A   Clear
6:55 AM -14.8 °F - -22.0 °F 70% 30.23 in 10.0 mi North - - N/A   Clear
7:15 AM -14.8 °F - -18.4 °F 84% 30.24 in 10.0 mi North - - N/A   Clear
7:35 AM -14.8 °F -27.2 °F -22.0 °F 70% 30.24 in 10.0 mi South 4.6 mph - N/A   Clear
7:55 AM -13.0 °F -25.1 °F -18.4 °F 77% 30.25 in 10.0 mi SSE 4.6 mph - N/A   Clear
8:15 AM -13.0 °F - -18.4 °F 77% 30.25 in 10.0 mi North - - N/A   Clear
8:35 AM -13.0 °F - -16.6 °F 84% 30.26 in 10.0 mi North - - N/A   Clear
8:55 AM -11.2 °F -20.6 °F -16.6 °F 77% 30.27 in 10.0 mi SSW 3.5 mph - N/A   Clear
9:15 AM -9.4 °F - -16.6 °F 71% 30.28 in 10.0 mi Calm Calm - N/A   Clear
9:35 AM -7.6 °F - -14.8 °F 71% 30.28 in 10.0 mi North - - N/A   Clear
9:55 AM -7.6 °F - -14.8 °F 71% 30.28 in 10.0 mi Calm Calm - N/A   Clear
10:15 AM -7.6 °F - -13.0 °F 77% 30.29 in 10.0 mi Calm Calm - N/A   Clear
10:35 AM -5.8 °F - -11.2 °F 77% 30.29 in 10.0 mi North - - N/A   Clear
10:55 AM -5.8 °F - -11.2 °F 77% 30.29 in 1.2 mi North - - N/A   Haze
11:15 AM -5.8 °F - -11.2 °F 77% 30.28 in 2.5 mi North - - N/A   Haze
11:35 AM -5.8 °F - -11.2 °F 77% 30.28 in 5.0 mi North - - N/A   Haze
11:55 AM -4.0 °F -12.4 °F -11.2 °F 71% 30.27 in 10.0 mi North 3.5 mph - N/A   Overcast
12:15 PM -4.0 °F - -9.4 °F 78% 30.27 in 10.0 mi North - - N/A   Overcast
12:35 PM -4.0 °F - -9.4 °F 78% 30.27 in 5.0 mi North - - N/A   Haze
12:55 PM -4.0 °F - -11.2 °F 71% 30.26 in 5.0 mi North - - N/A Snow Light Snow
1:15 PM -4.0 °F - -9.4 °F 78% 30.25 in 5.0 mi North - - N/A Snow Light Snow
1:35 PM -4.0 °F - -9.4 °F 78% 30.25 in 5.0 mi North - - N/A Snow Light Snow
1:55 PM -4.0 °F -12.4 °F -11.2 °F 71% 30.25 in 7.0 mi NNW 3.5 mph - N/A   Overcast
2:15 PM -2.2 °F - -11.2 °F 66% 30.25 in 10.0 mi North - - N/A   Mostly Cloudy
2:35 PM -4.0 °F -16.3 °F -11.2 °F 71% 30.25 in 10.0 mi North 5.8 mph - N/A   Scattered Clouds
2:55 PM -4.0 °F - -11.2 °F 71% 30.25 in 10.0 mi North - - N/A   Scattered Clouds
3:15 PM -4.0 °F - -11.2 °F 71% 30.25 in 10.0 mi North - - N/A   Scattered Clouds
3:35 PM -5.8 °F - -11.2 °F 77% 30.26 in 10.0 mi North - - N/A   Scattered Clouds
3:55 PM -5.8 °F -16.7 °F -13.0 °F 71% 30.26 in 10.0 mi North 4.6 mph - N/A Snow Light Snow
4:15 PM -7.6 °F -18.8 °F -13.0 °F 77% 30.27 in 10.0 mi North 4.6 mph - N/A   Scattered Clouds
4:35 PM -7.6 °F -20.6 °F -13.0 °F 77% 30.27 in 10.0 mi North 5.8 mph - N/A   Mostly Cloudy
4:55 PM -9.4 °F -20.9 °F -14.8 °F 77% 30.28 in 10.0 mi NNE 4.6 mph - N/A   Clear
5:15 PM -9.4 °F - -14.8 °F 77% 30.28 in 10.0 mi Calm Calm - N/A   Clear
5:35 PM -9.4 °F - -14.8 °F 77% 30.28 in 10.0 mi North - - N/A Snow Light Snow
5:55 PM -11.2 °F - -16.6 °F 77% 30.28 in 10.0 mi North - - N/A   Clear
6:15 PM -11.2 °F - -16.6 °F 77% 30.28 in 10.0 mi North - - N/A   Clear
6:35 PM -13.0 °F - -16.6 °F 84% 30.28 in 10.0 mi North - - N/A   Mostly Cloudy
6:55 PM -13.0 °F - -16.6 °F 84% 30.29 in 10.0 mi North - - N/A   Overcast
7:15 PM -13.0 °F - -18.4 °F 77% 30.30 in 10.0 mi North - - N/A   Mostly Cloudy
7:35 PM -14.8 °F - -18.4 °F 84% 30.30 in 7.0 mi North - - N/A   Mostly Cloudy
7:55 PM -14.8 °F - -20.2 °F 77% 30.30 in 10.0 mi North - - N/A   Scattered Clouds
8:15 PM -14.8 °F - -20.2 °F 77% 30.30 in 10.0 mi Calm Calm - N/A   Scattered Clouds
8:35 PM -16.6 °F - -22.0 °F 76% 30.30 in 10.0 mi North - - N/A   Overcast
8:55 PM -14.8 °F - -18.4 °F 84% 30.30 in 10.0 mi Calm Calm - N/A   Overcast
9:15 PM -14.8 °F - -18.4 °F 84% 30.30 in 10.0 mi North - - N/A   Overcast
9:35 PM -14.8 °F - -18.4 °F 84% 30.30 in 7.0 mi Calm Calm - N/A   Overcast
9:55 PM -14.8 °F - -20.2 °F 77% 30.30 in 7.0 mi Calm Calm - N/A   Overcast
10:15 PM -14.8 °F - -20.2 °F 77% 30.30 in 7.0 mi North - - N/A   Mostly Cloudy
10:35 PM -14.8 °F - -20.2 °F 77% 30.30 in 7.0 mi North - - N/A Snow Light Snow
10:55 PM -14.8 °F - -20.2 °F 77% 30.29 in 10.0 mi Calm Calm - N/A Snow Light Snow
11:15 PM -16.6 °F - -22.0 °F 76% 30.30 in 10.0 mi Calm Calm - N/A Snow Light Snow
11:35 PM -14.8 °F - -22.0 °F 70% 30.29 in 10.0 mi North - - N/A   Overcast
11:55 PM -14.8 °F - -20.2 °F 77% 30.29 in 10.0 mi Calm Calm - N/A   Scattered Clouds